User: anonymous   Login
Location: Unspecified
(0.0000°N, 0.0000°E)
Time: 12:54:33
(UTC+01:00)
Language:

H-2A R/B - Orbit

View from above orbital plane
View from above orbital plane
View from above satellite
View from above satellite

Ground track
Ground track

The orbit data is extracted from the following two-line orbital elements,

1 26899U 01038B   15063.14701546  .00003020  00000-0  10155-2 0  9998
2 26899 028.3296 043.2605 7147654 356.9934 011.9506 02.44498651115876
Epoch (UTC): 04 March 2015 03:31:42
Eccentricity: 0.7147654
inclination: 28.3296°
perigee height: 260 km
apogee height: 33532 km
right ascension of ascending node: 43.2605°
argument of perigee: 356.9934°
revolutions per day: 2.44498651
mean anomaly at epoch: 11.9506°
orbit number at epoch: 11587

The dashed part of the orbit path shows where the satellite is in the earth's shadow,  

DLR